Location: Neuvy Saint Sepulchre
(46.5953°N, 1.8122°E)
Time: 10:21:35
(UTC+02:00)

ISS - Pass Details

Date: 07 May 2021
Orbit: 417 x 422 km, 51.6° (Epoch: 15 May)

Event Time Altitude Azimuth Distance (km) Brightness Sun altitude
Exits shadow 05:08:16 - 288° (WNW) 1,841 -0.8 -12.4°
Reaches altitude 10° 05:09:09 10° 293° (WNW) 1,505 -1.2 -12.3°
Maximum altitude 05:12:16 33° 359° (N) 734 -2.1 -11.9°
Drops below altitude 10° 05:15:22 10° 66° (ENE) 1,507 0.4 -11.5°
Sets 05:17:36 0° 76° (ENE) 2,372 1.3 -11.2°
